Powrót do katalogu

THORAD AGENA D DEB

AktywnyLEO
NORAD 4432·DEBRIS·🇺🇸 United States

Wystrzelony Sep 30, 1969 z Vandenberg Space Force Base

Loading…

Następne Przeloty (najbliższe 24 godziny)

TLE

ŚwieżeSource: Space-Track

Epoka: Sep 13, 2026, 23:14 UTC

1 04432U 69082ED  26256.96831292  .00000286  00000-0  13013-3 0  9996
2 04432  69.9751  97.5674 0051976  11.0094 349.2154 14.30528905947783

Śledź THORAD AGENA D DEB w czasie rzeczywistym z AllMySat

Download on the App Store